DW5459 Weather Reports


time (UTC)temp
F
wind
direction
speed
knots
gust
knots
rain 1hr
in
rain 24hr
in
rain mn
in
humidity
%
barometer
mb
20260502152024 55 233 4.3 11.3 0.00 0.00 0.00 49
20260502151605 54 240 6.1 13.0 0.00 0.00 0.00 49 1011.6
20260502151517 55 234 7.0 13.0 0.00 0.00 0.00 48
20260502151030 54 239 9.6 12.2 0.00 0.00 0.00 48
20260502150541 54 236 7.8 13.9 0.00 0.00 0.00 48
20260502150113 54 229 7.8 13.9 0.00 0.00 0.00 48 1011.8
20260502130527 49 236 11.3 18.2 0.00 0.00 0.00 59
20260502130111 48 248 7.8 13.0 0.00 0.00 0.00 60 1013.5
20260502123550 47 242 10.4 15.6 0.00 0.00 0.00 61
20260502123115 46 250 9.6 13.9 0.00 0.00 0.00 61 1013.8
20260502123045 47 248 10.4 13.9 0.00 0.00 0.00 61
20260502122521 47 255 8.7 13.0 0.00 0.00 0.00 62
20260502122035 47 238 8.7 13.0 0.00 0.00 0.00 63
20260502121620 46 247 7.0 11.3 0.00 0.00 0.00 64 1014.0
20260502121551 46 232 7.0 11.3 0.00 0.00 0.00 64
20260502121024 46 248 7.0 11.3 0.00 0.00 0.00 64
20260502120538 46 240 7.0 11.3 0.00 0.00 0.00 63
20260502120125 46 231 7.0 11.3 0.00 0.00 0.00 63 1013.9
20260502115524 46 254 7.0 11.3 0.00 0.00 0.00 63
20260502115019 46 251 7.8 13.9 0.00 0.00 0.00 63
20260502114509 46 239 7.0 13.9 0.00 0.00 0.00 62 1014.0
20260502114031 46 250 7.8 13.0 0.00 0.00 0.00 61
20260502113525 46 242 7.8 13.0 0.00 0.00 0.00 61
20260502113058 46 248 8.7 13.0 0.00 0.00 0.00 62 1014.1
20260502113020 46 242 9.6 13.0 0.00 0.00 0.00 62
20260502112516 46 252 7.8 13.0 0.00 0.00 0.00 63
20260502112031 45 248 7.8 10.4 0.00 0.00 0.00 66
20260502111526 45 248 5.2 7.8 0.00 0.00 0.00 67
20260502111506 44 248 5.2 7.8 0.00 0.00 0.00 67 1014.3
20260502111018 45 246 5.2 7.8 0.00 0.00 0.00 67
20260502110534 44 248 5.2 7.8 0.00 0.00 0.00 67
20260502110059 44 243 5.2 8.7 0.00 0.00 0.00 67 1014.5
20260502110028 44 239 5.2 8.7 0.00 0.00 0.00 67
20260502105524 44 238 6.1 8.7 0.00 0.00 0.00 67
20260502105019 44 242 4.3 7.8 0.00 0.00 0.00 67
20260502104530 43 242 4.3 7.8 0.00 0.00 0.00 68 1014.6
20260502104516 44 242 4.3 7.8 0.00 0.00 0.00 68
20260502104031 44 248 4.3 7.0 0.00 0.00 0.00 68
20260502103547 44 247 4.3 7.0 0.00 0.00 0.00 68
20260502103034 43 247 3.5 7.8 0.00 0.00 0.00 68 1014.8
20260502103020 44 247 4.3 7.8 0.00 0.00 0.00 68
20260502102516 44 247 5.2 7.8 0.00 0.00 0.00 67
20260502102025 44 246 5.2 8.7 0.00 0.00 0.00 67
20260502101605 44 252 3.5 9.6 0.00 0.00 0.00 67 1014.8
20260502101520 44 245 4.3 9.6 0.00 0.00 0.00 67
20260502101016 44 249 5.2 7.8 0.00 0.00 0.00 68
20260502100532 43 240 5.2 7.0 0.00 0.00 0.00 70
20260502091520 43 178 3.5 6.1 0.00 0.00 0.00 68
20260502091036 43 173 3.5 5.2 0.00 0.00 0.00 67
20260502090555 43 166 3.5 5.2 0.00 0.00 0.00 66
20260502071524 44 158 4.3 7.0 0.00 0.00 0.00 65
20260502071506 44 158 3.5 7.0 0.00 0.00 0.00 65 1016.8
20260502071019 45 155 3.5 7.0 0.00 0.00 0.00 65
20260502070537 45 154 4.3 7.0 0.00 0.00 0.00 64
20260502070031 45 152 3.5 7.0 0.00 0.00 0.00 63
20260502070011 44 153 3.5 7.0 0.00 0.00 0.00 63 1017.1
20260502065525 45 151 4.3 8.7 0.00 0.00 0.00 62
20260502065018 45 147 4.3 8.7 0.00 0.00 0.00 62
20260502064603 44 146 5.2 9.6 0.00 0.00 0.00 62 1017.2
20260502064533 45 146 6.1 9.6 0.00 0.00 0.00 62
20260502064027 45 136 6.1 8.7 0.00 0.00 0.00 64
20260502063521 45 139 6.1 8.7 0.00 0.00 0.00 64
20260502063131 44 142 5.2 8.7 0.00 0.00 0.00 64 1017.4
20260502063037 45 141 6.1 8.7 0.00 0.00 0.00 64
20260502062553 45 144 6.1 8.7 0.00 0.00 0.00 63
20260502062025 45 152 5.2 8.7 0.00 0.00 0.00 63
20260502061534 44 155 5.2 7.8 0.00 0.00 0.00 64 1017.6
20260502061520 45 156 6.1 7.8 0.00 0.00 0.00 64
20260502061033 44 155 6.1 7.8 0.00 0.00 0.00 65
20260502060548 44 139 5.2 8.7 0.00 0.00 0.00 65
20260502060038 44 138 6.1 8.7 0.00 0.00 0.00 64 1017.8
20260502060022 44 138 6.1 8.7 0.00 0.00 0.00 65
20260502055517 44 139 6.1 9.6 0.00 0.00 0.00 64
20260502055032 44 136 6.1 9.6 0.00 0.00 0.00 63
20260502054608 44 138 6.1 10.4 0.00 0.00 0.00 62 1018.0
20260502054526 45 138 7.0 10.4 0.00 0.00 0.00 62
20260502054042 45 136 7.8 10.4 0.00 0.00 0.00 62
20260502053534 45 142 6.1 9.6 0.00 0.00 0.00 61
20260502053106 44 142 4.3 8.7 0.00 0.00 0.00 61 1018.1
20260502053028 45 142 4.3 7.8 0.00 0.00 0.00 60
20260502052524 45 146 5.2 7.8 0.00 0.00 0.00 60
20260502052020 45 154 5.2 7.8 0.00 0.00 0.00 60
20260502051531 45 157 5.2 7.8 0.00 0.00 0.00 60
20260502051516 45 155 4.3 7.8 0.00 0.00 0.00 60 1018.3
20260502051023 45 153 6.1 7.8 0.00 0.00 0.00 59
20260502050518 45 156 5.2 7.8 0.00 0.00 0.00 59
20260502050104 45 156 4.3 7.8 0.00 0.00 0.00 58 1018.4
20260502050031 46 159 4.3 7.8 0.00 0.00 0.00 58
20260502045543 46 155 5.2 7.8 0.00 0.00 0.00 57
20260502045018 46 153 5.2 7.8 0.00 0.00 0.00 57
20260502044603 45 151 5.2 7.8 0.00 0.00 0.00 58 1018.5
20260502044534 46 147 5.2 7.8 0.00 0.00 0.00 58
20260502044030 46 146 5.2 9.6 0.00 0.00 0.00 58
20260502043524 46 153 6.1 9.6 0.00 0.00 0.00 58
20260502043040 46 146 5.2 8.7 0.00 0.00 0.00 58 1018.6
20260502043021 46 146 5.2 8.7 0.00 0.00 0.00 58
20260502042516 46 144 5.2 8.7 0.00 0.00 0.00 57
20260502042032 47 142 6.1 8.7 0.00 0.00 0.00 57
20260502041603 46 150 4.3 7.8 0.00 0.00 0.00 57 1018.8
20260502041527 47 152 5.2 7.8 0.00 0.00 0.00 57
20260502041023 47 150 5.2 9.6 0.00 0.00 0.00 56
20260502040518 47 146 5.2 10.4 0.00 0.00 0.00 55
20260502040035 47 136 7.0 12.2 0.00 0.00 0.00 55
20260502040013 47 141 7.0 12.2 0.00 0.00 0.00 55 1018.8
20260502035530 47 139 6.1 9.6 0.00 0.00 0.00 55
20260502035025 47 138 6.1 9.6 0.00 0.00 0.00 56
20260502034605 47 141 5.2 9.6 0.00 0.00 0.00 57 1018.8
20260502034521 47 134 6.1 9.6 0.00 0.00 0.00 57
20260502034033 47 144 5.2 7.8 0.00 0.00 0.00 58
20260502033527 48 141 4.3 7.8 0.00 0.00 0.00 58
20260502033041 47 140 5.2 7.8 0.00 0.00 0.00 57 1018.9
20260502033023 48 140 6.1 7.8 0.00 0.00 0.00 57
20260502032541 48 141 5.2 7.8 0.00 0.00 0.00 56
20260502032036 48 138 5.2 8.7 0.00 0.00 0.00 54
20260502031615 48 145 5.2 8.7 0.00 0.00 0.00 53 1019.0
20260502031533 49 140 5.2 8.7 0.00 0.00 0.00 53
20260502031027 49 138 6.1 8.7 0.00 0.00 0.00 51
20260502030521 49 138 5.2 8.7 0.00 0.00 0.00 51
20260502030053 49 142 4.3 7.8 0.00 0.00 0.00 52 1018.9
20260502030036 49 142 5.2 7.8 0.00 0.00 0.00 52
20260502025530 49 137 6.1 7.8 0.00 0.00 0.00 52
20260502025044 50 145 5.2 8.7 0.00 0.00 0.00 51
20260502024554 49 140 6.1 9.6 0.00 0.00 0.00 51 1019.0
20260502024518 50 140 6.1 9.6 0.00 0.00 0.00 51
20260502024033 50 140 6.1 9.6 0.00 0.00 0.00 51
20260502023527 50 135 6.1 9.6 0.00 0.00 0.00 52
20260502023021 50 138 7.0 9.6 0.00 0.00 0.00 53
20260502023003 49 140 6.1 9.6 0.00 0.00 0.00 53 1019.0
20260502022531 50 121 7.0 9.6 0.00 0.00 0.00 53
20260502022047 50 129 6.1 9.6 0.00 0.00 0.00 51
20260502021623 50 140 6.1 9.6 0.00 0.00 0.00 52 1018.8
20260502021543 50 140 7.0 9.6 0.00 0.00 0.00 52
20260502021015 50 141 7.0 9.6 0.00 0.00 0.00 53
20260502020530 50 115 6.1 9.6 0.00 0.00 0.00 54
20260502020041 51 123 6.1 8.7 0.00 0.00 0.00 53 1018.9
20260502020025 51 128 6.1 9.6 0.00 0.00 0.00 52
20260502015519 52 133 6.1 9.6 0.00 0.00 0.00 49
20260502015034 52 129 4.3 9.6 0.00 0.00 0.00 47
20260502014601 52 132 6.1 9.6 0.00 0.00 0.00 47 1018.9
20260502014529 52 137 6.1 9.6 0.00 0.00 0.00 47
20260502014024 52 138 5.2 9.6 0.00 0.00 0.00 48
20260502013520 52 135 7.0 9.6 0.00 0.00 0.00 48
20260502013034 52 143 5.2 9.6 0.00 0.00 0.00 47 1018.9
20260502013017 53 142 6.1 9.6 0.00 0.00 0.00 47
20260502012533 53 137 5.2 8.7 0.00 0.00 0.00 45
20260502012029 54 126 6.1 8.7 0.00 0.00 0.00 44
20260502011557 53 121 6.1 8.7 0.00 0.00 0.00 44 1018.9
20260502011523 54 122 6.1 8.7 0.00 0.00 0.00 44
20260502011018 54 137 6.1 7.8 0.00 0.00 0.00 44
20260502010534 54 144 5.2 7.8 0.00 0.00 0.00 43
20260502010030 55 134 6.1 7.8 0.00 0.00 0.00 42
20260502010003 54 134 6.1 7.8 0.00 0.00 0.00 42 1019.0
20260502005525 55 143 6.1 8.7 0.00 0.00 0.00 41
20260502005020 56 126 4.3 8.7 0.00 0.00 0.00 41
20260502004551 56 119 4.3 6.1 0.00 0.00 0.00 40 1019.1
20260502004535 56 128 4.3 6.1 0.00 0.00 0.00 40
20260502004052 56 140 5.2 6.1 0.00 0.00 0.00 39
20260502003526 56 127 4.3 6.1 0.00 0.00 0.00 39
20260502003057 56 123 2.6 7.0 0.00 0.00 0.00 39 1019.3
20260502003022 56 123 2.6 7.0 0.00 0.00 0.00 39
20260502002516 56 123 2.6 7.0 0.00 0.00 0.00 39
20260502002034 56 124 2.6 6.1 0.00 0.00 0.00 39
20260502001526 56 125 2.6 6.1 0.00 0.00 0.00 39
20260502001508 56 125 2.6 6.1 0.00 0.00 0.00 39 1019.5
20260502001020 56 125 3.5 6.1 0.00 0.00 0.00 39
20260502000534 56 128 5.2 7.8 0.00 0.00 0.00 38
20260502000049 56 109 6.1 8.7 0.00 0.00 0.00 38
20260502000012 56 109 6.1 8.7 0.00 0.00 0.00 38 1019.6
20260501235523 56 109 6.1 8.7 0.00 0.00 0.00 38
20260501235020 56 126 6.1 8.7 0.00 0.00 0.00 38
20260501234600 55 109 5.2 7.8 0.00 0.00 0.00 38 1019.8
20260501234516 56 108 5.2 7.8 0.00 0.00 0.00 38
20260501234029 56 142 5.2 8.7 0.00 0.00 0.00 37
20260501233523 56 151 5.2 8.7 0.00 0.00 0.00 38
20260501233034 56 151 4.3 7.8 0.00 0.00 0.00 37
20260501233005 56 157 4.3 7.8 0.00 0.00 0.00 37 1020.0
20260501232550 56 130 4.3 7.0 0.00 0.00 0.00 38
20260501232025 56 132 5.2 8.7 0.00 0.00 0.00 38
20260501231551 55 166 5.2 8.7 0.00 0.00 0.00 38 1020.1
20260501231522 56 167 5.2 8.7 0.00 0.00 0.00 38
20260501231039 56 136 5.2 9.6 0.00 0.00 0.00 38
20260501230555 56 128 7.0 9.6 0.00 0.00 0.00 38
20260501230049 56 153 4.3 7.0 0.00 0.00 0.00 37 1020.2
20260501230024 56 148 5.2 7.0 0.00 0.00 0.00 37
20260501225517 56 127 5.2 7.8 0.00 0.00 0.00 37
20260501225030 56 148 4.3 7.8 0.00 0.00 0.00 37
20260501224611 56 152 4.3 7.8 0.00 0.00 0.00 37 1020.3
20260501224526 56 130 5.2 7.8 0.00 0.00 0.00 38
20260501224021 56 157 4.3 7.8 0.00 0.00 0.00 37
20260501223538 56 121 4.3 7.8 0.00 0.00 0.00 37
20260501223105 56 147 2.6 7.0 0.00 0.00 0.00 37 1020.5
20260501223030 57 163 2.6 7.0 0.00 0.00 0.00 37
20260501222523 56 113 5.2 7.0 0.00 0.00 0.00 37
20260501222037 57 134 4.3 6.1 0.00 0.00 0.00 36
20260501221626 57 247 1.7 3.5 0.00 0.00 0.00 36 1020.6
20260501221552 57 247 1.7 3.5 0.00 0.00 0.00 36
20260501221026 57 248 1.7 3.5 0.00 0.00 0.00 37
20260501220522 56 246 1.7 6.1 0.00 0.00 0.00 37
20260501220132 56 243 2.6 9.6 0.00 0.00 0.00 37 1020.9
20260501220037 56 243 3.5 9.6 0.00 0.00 0.00 37
20260501215531 56 238 4.3 9.6 0.00 0.00 0.00 37
20260501215048 56 250 0.9 7.8 0.00 0.00 0.00 37
20260501214615 55 227 4.3 7.8 0.00 0.00 0.00 37 1021.0
20260501214521 55 238 5.2 7.8 0.00 0.00 0.00 37
20260501214016 56 237 5.2 8.7 0.00 0.00 0.00 37
20260501213530 55 249 5.2 10.4 0.00 0.00 0.00 38
20260501213045 54 194 1.7 10.4 0.00 0.00 0.00 38 1021.1
20260501213025 55 194 2.6 10.4 0.00 0.00 0.00 38
20260501212519 55 209 5.2 7.8 0.00 0.00 0.00 39
20260501212031 55 222 5.2 10.4 0.00 0.00 0.00 38
20260501211612 54 197 3.5 10.4 0.00 0.00 0.00 39 1021.2
20260501211547 54 196 4.3 10.4 0.00 0.00 0.00 39
20260501211019 54 144 3.5 6.1 0.00 0.00 0.00 39
20260501210515 54 123 0.9 7.8 0.00 0.00 0.00 40
20260501210107 53 127 3.5 6.1 0.00 0.00 0.00 39 1021.4
20260501210031 54 135 3.5 6.1 0.00 0.00 0.00 39
20260501205526 53 121 0.0 8.7 0.00 0.00 0.00 39
20260501205022 53 134 5.2 8.7 0.00 0.00 0.00 39
20260501204539 53 121 3.5 7.8 0.00 0.00 0.00 39 1021.5
20260501204518 54 119 3.5 7.8 0.00 0.00 0.00 39
20260501204041 54 151 3.5 7.8 0.00 0.00 0.00 38
20260501203535 54 243 2.6 7.0 0.00 0.00 0.00 38
20260501203139 54 280 3.5 7.0 0.00 0.00 0.00 39 1021.6
20260501203050 55 263 4.3 7.0 0.00 0.00 0.00 39
20260501202525 54 360 3.5 7.8 0.00 0.00 0.00 38
20260501202021 55 351 4.3 8.7 0.00 0.00 0.00 38
20260501201549 54 329 2.6 6.1 0.00 0.00 0.00 39 1021.7
20260501201517 55 212 3.5 6.1 0.00 0.00 0.00 38
20260501201032 54 262 0.9 4.3 0.00 0.00 0.00 38
20260501200525 54 262 1.7 6.1 0.00 0.00 0.00 39
20260501200112 53 229 2.6 8.7 0.00 0.00 0.00 39 1021.9
20260501200018 53 229 2.6 8.7 0.00 0.00 0.00 39
20260501195533 53 232 3.5 8.7 0.00 0.00 0.00 39
20260501195028 53 262 5.2 8.7 0.00 0.00 0.00 40
20260501194548 52 236 1.7 8.7 0.00 0.00 0.00 41 1022.0
20260501194524 53 236 2.6 8.7 0.00 0.00 0.00 40
20260501194039 52 221 3.5 8.7 0.00 0.00 0.00 41
20260501193534 52 311 1.7 8.7 0.00 0.00 0.00 41
20260501193049 51 195 3.5 8.7 0.00 0.00 0.00 41 1022.1
20260501193029 51 198 4.3 8.7 0.00 0.00 0.00 41
20260501192522 51 232 2.6 6.1 0.00 0.00 0.00 41
20260501192036 51 208 2.6 7.0 0.00 0.00 0.00 41
20260501191553 51 255 1.7 7.0 0.00 0.00 0.00 41 1022.3
20260501191529 51 234 2.6 7.0 0.00 0.00 0.00 41
20260501191024 51 232 4.3 7.8 0.00 0.00 0.00 42
20260501190521 50 178 2.6 7.8 0.00 0.00 0.00 41
20260501190116 50 194 4.3 7.8 0.00 0.00 0.00 40 1022.3
20260501190037 51 208 5.2 7.8 0.00 0.00 0.00 41
20260501185550 50 152 2.6 8.7 0.00 0.00 0.00 42
20260501185024 50 90 1.7 8.7 0.00 0.00 0.00 42
20260501184621 50 360 2.6 7.0 0.00 0.00 0.00 43 1022.4
20260501184538 50 219 3.5 7.0 0.00 0.00 0.00 42
20260501184033 50 254 3.5 7.0 0.00 0.00 0.00 42
20260501183528 50 279 4.3 7.0 0.00 0.00 0.00 43
20260501183125 49 281 0.0 7.0 0.00 0.00 0.00 43 1022.6
20260501183044 50 281 1.7 7.0 0.00 0.00 0.00 42
20260501182538 49 254 1.7 6.1 0.00 0.00 0.00 43
20260501182054 49 254 1.7 6.1 0.00 0.00 0.00 42
20260501181610 49 252 3.5 7.0 0.00 0.00 0.00 41 1022.9
20260501181528 49 252 3.5 7.0 0.00 0.00 0.00 42
20260501181021 50 261 3.5 6.1 0.00 0.00 0.00 42
20260501180517 49 263 0.9 7.0 0.00 0.00 0.00 43
20260501180034 49 264 2.6 7.0 0.00 0.00 0.00 43
20260501180015 48 267 2.6 7.0 0.00 0.00 0.00 43 1023.1
20260501175529 49 136 1.7 4.3 0.00 0.00 0.00 44
20260501175026 48 123 1.7 4.3 0.00 0.00 0.00 44
20260501174605 47 125 1.7 8.7 0.00 0.00 0.00 45 1023.2
20260501174522 48 126 1.7 8.7 0.00 0.00 0.00 45
20260501174017 48 128 3.5 8.7 0.00 0.00 0.00 44
20260501173533 48 108 5.2 7.8 0.00 0.00 0.00 44
20260501173131 47 94 0.9 5.2 0.00 0.00 0.00 45 1023.2
20260501173047 47 136 1.7 5.2 0.00 0.00 0.00 45
20260501172523 47 136 3.5 7.8 0.00 0.00 0.00 45
20260501172019 47 182 4.3 7.8 0.00 0.00 0.00 44
20260501171538 46 167 3.5 7.0 0.00 0.00 0.00 44 1023.4
20260501171516 47 167 3.5 7.0 0.00 0.00 0.00 45
20260501171032 47 158 1.7 6.1 0.00 0.00 0.00 44
20260501170527 47 187 3.5 6.1 0.00 0.00 0.00 44
20260501170105 46 180 0.9 7.8 0.00 0.00 0.00 44 1023.4
20260501170022 47 165 1.7 7.8 0.00 0.00 0.00 44
20260501165517 47 188 2.6 7.0 0.00 0.00 0.00 44
20260501165031 46 121 1.7 6.1 0.00 0.00 0.00 44
20260501164527 46 180 3.5 6.1 0.00 0.00 0.00 45
20260501164509 45 180 3.5 7.8 0.00 0.00 0.00 45 1023.4
20260501164023 45 184 0.9 7.8 0.00 0.00 0.00 46
20260501163519 46 184 3.5 7.8 0.00 0.00 0.00 45
20260501163057 45 163 1.7 6.1 0.00 0.00 0.00 46 1023.5
20260501163034 46 149 2.6 6.1 0.00 0.00 0.00 46
20260501162527 45 164 1.7 5.2 0.00 0.00 0.00 48
20260501162022 45 168 3.5 7.0 0.00 0.00 0.00 47
20260501161529 44 196 2.6 7.0 0.00 0.00 0.00 48 1023.4
20260501161515 44 202 3.5 7.0 0.00 0.00 0.00 48
20260501161051 44 175 2.6 7.0 0.00 0.00 0.00 49
20260501160526 44 176 4.3 7.0 0.00 0.00 0.00 49
20260501160036 43 175 3.5 6.1 0.00 0.00 0.00 49 1023.4
20260501160020 44 174 3.5 6.1 0.00 0.00 0.00 49
20260501155538 43 155 1.7 7.8 0.00 0.00 0.00 49
20260501155033 44 141 4.3 7.8 0.00 0.00 0.00 49
20260501154637 43 153 3.5 6.1 0.00 0.00 0.00 50 1023.5
20260501154023 44 149 3.5 8.7 0.00 0.00 0.00 50
20260501153520 44 163 3.5 6.1 0.00 0.00 0.00 51
20260501153041 43 163 0.9 6.1 0.00 0.00 0.00 52 1023.5
20260501153015 44 164 1.7 6.1 0.00 0.00 0.00 52